Weather in Syukeyevo

Russia / Republic of Tatarstan     55°06′27″N   49°00′55″E
temp.,
°C
wind,
m/s
gust,
m/s
humid.,
%
clouds,
%
prec.,
mm/h
press.,
hPa
HPBL,
m
17 may, mon
mon1700:00+15ssw33664 0.0 101615
03:00+14sw22706 0.0 101612
06:00+14se007455 0.0 101718
09:00+17ssw346649 0.0 101777
12:00+20ssw45545 0.0 1017122
15:00+22sw46475 0.0 1016231
18:00+21sw33605 0.0 101615
21:00+17w66715 0.0 101742
18 may, tue
tue1800:00+15nw348215 0.0 101718
03:00+12ne449511 0.0 101735
06:00+12ne339426 0.0 101835
09:00+13ne449230 0.0 101872
12:00+14nne449046 0.0 1018127
15:00+15nne698526 0.1 1018126
18:00+15ne58805 0.0 101764
21:00+15ene57805 0.0 101853
19 may, wed
wed1900:00+14ene44765 0.0 101844
03:00+13ene46808 0.0 101851
06:00+12ene578627 0.0 101971
09:00+14e68785 0.0 1018125
12:00+17e69630 0.0 1018201
15:00+18e69580 0.0 1017229
18:00+17e67690 0.0 101752
21:00+15e57780 0.0 101751
20 may, thu
thu2000:00+14ese45790 0.0 101745
03:00+12e46790 0.0 101851
06:00+13ese58790 0.0 101886
09:00+15ese69710 0.0 1017140
12:00+17ese710610 0.0 1017295
15:00+18ese812570 0.0 1015303
18:00+16ese710620 0.0 101492
21:00+15ese69670 0.0 101378
21 may, fri
fri2100:00+13se33746 0.0 101326
03:00+12se3384100 0.2 101233
06:00+12s2299100 2.2 101336
09:00+12sw3495100 4.4 101469
12:00+16ssw687452 0.6 1014253
15:00+17sw695946 0.7 1014335
18:00+16wsw46725 0.0 101583
21:00+15ssw337757 0.1 101623